Wind_Speed
8 14 18 20 22 21 20 18 18 15 13 11 8 6 5 4 3 2 1 2 4 6 7 7 7 7 8 10 11 11 11 11 16 4 3 2 2 11 8 14 9 11 9
8 10 14 17 20 23 21 20 18 16 14 11 9 5 5 4 4 3 2 2 6 7 7 8 7 6 6 7 9 9 7 6 14 7 2 3 1 7 6 6 13 12 11
13 10 12 17 19 20 21 20 19 17 15 13 10 7 6 4 5 6 3 5 7 7 7 7 7 6 6 5 6 7 8 6 7 9 5 2 2 7 3 4 6 13 9
7 7 13 17 21 20 18 18 17 16 15 13 11 10 8 7 6 5 4 6 6 6 5 5 6 6 6 6 5 6 6 6 5 3 4 2 2 2 3 3 5 14 8
11 11 15 22 22 20 19 18 17 16 15 13 12 11 9 7 6 4 5 5 4 5 5 5 5 5 6 6 6 5 5 4 3 2 3 3 3 4 4 5 7 12 5
7 10 16 19 21 19 19 19 18 16 15 14 13 11 10 8 6 5 5 4 4 4 5 5 5 5 6 6 6 7 6 6 6 5 4 4 3 2 4 4 10 11 7
10 10 11 16 22 23 22 20 19 18 16 15 13 11 9 8 7 6 5 5 6 5 5 6 5 5 6 6 6 7 7 7 7 7 8 8 8 8 8 8 10 6 9
10 12 15 19 24 26 23 21 20 18 17 16 14 11 9 8 6 5 5 6 6 6 6 7 7 7 7 7 7 8 8 8 8 8 9 9 10 10 8 7 6 6 5
12 13 13 20 25 26 25 23 22 19 17 16 13 11 9 7 5 4 4 3 5 5 6 7 7 7 7 7 7 7 8 9 9 9 9 10 10 10 9 11 8 6 4
6 9 14 19 26 27 24 22 21 20 17 14 12 10 7 5 4 3 2 2 2 4 4 5 5 5 6 6 6 6 7 7 8 9 8 10 11 11 11 11 10 10 10
9 8 12 19 26 25 23 23 21 19 17 14 11 9 8 6 4 3 2 1 2 3 4 5 5 5 5 5 5 5 6 7 8 8 9 10 11 11 12 11 12 11 10
10 10 13 19 23 24 23 22 20 18 15 12 11 10 8 7 6 5 5 4 3 3 4 4 5 5 6 6 6 6 6 7 8 8 9 10 10 11 12 12 12 13 12
9 8 9 13 16 22 21 21 19 17 15 14 13 11 10 9 8 8 7 6 5 5 5 5 5 6 6 7 7 7 7 7 7 8 9 9 10 11 11 11 12 13 14
8 7 6 8 16 22 22 20 18 16 16 15 14 12 11 10 9 8 8 7 6 6 5 5 6 6 6 7 7 7 7 7 7 7 7 8 9 10 11 12 12 13 12
8 10 11 12 20 23 23 21 19 18 17 16 15 13 13 12 11 10 9 7 6 5 5 4 4 4 5 7 7 7 7 7 7 7 8 8 8 8 9 9 10 11 12
12 13 12 15 18 23 25 22 21 20 18 18 17 16 15 14 12 10 9 7 5 4 3 2 3 4 5 5 6 7 8 7 8 9 10 10 9 9 9 9 9 9 9
14 15 16 20 23 29 31 29 27 23 23 21 20 19 17 15 13 11 9 8 5 4 3 2 2 2 3 4 6 7 8 8 8 8 10 10 10 11 11 11 10 10 9
10 11 14 19 24 30 31 27 26 25 24 22 21 19 17 15 13 11 9 8 6 5 3 2 3 3 3 4 5 6 7 7 6 7 8 10 11 11 11 14 14 14 13
9 17 23 24 27 33 31 29 27 26 25 24 22 20 18 16 14 12 10 8 6 5 3 2 1 2 3 3 5 6 6 6 6 7 8 10 12 12 12 13 15 17 18
10 17 25 28 31 33 33 31 30 28 27 25 22 20 18 16 15 12 10 8 6 5 3 2 1 1 3 4 4 5 7 7 9 9 10 11 13 12 11 13 14 16 17
8 13 23 26 32 36 35 30 30 31 28 24 22 20 18 17 14 13 11 8 7 5 4 3 2 2 3 3 3 4 5 7 10 12 14 14 14 14 15 13 15 15 17
6 14 19 21 28 36 35 30 31 30 26 24 23 21 19 17 15 13 11 9 7 6 5 5 5 4 4 4 5 5 6 7 10 13 16 17 16 16 15 16 16 14 16
8 14 19 22 28 35 37 31 32 28 27 26 24 22 19 16 14 13 11 9 8 8 7 7 8 8 6 6 7 8 8 9 12 14 16 18 18 19 20 21 19 18 17
10 13 16 16 20 30 32 29 27 27 28 26 23 19 17 15 13 12 10 10 11 10 10 9 11 12 11 10 10 10 11 12 15 16 18 19 20 20 22 24 24 22 20
13 18 17 15 16 24 26 22 24 26 26 23 20 17 15 13 12 12 12 13 13 12 12 12 12 12 15 15 13 13 14 16 17 17 20 22 21 22 24 25 25 24 22
16 17 15 16 19 24 23 21 22 25 23 20 17 16 14 13 13 14 14 14 14 12 13 13 13 14 16 15 14 15 16 16 17 17 19 20 19 19 19 19 21 21 22
Wind_Direction
189 190 192 196 194 190 187 189 190 187 189 186 193 212 216 205 218 225 297 334 339 333 327 334 339 349 1 10 11 14 15 13 17 31 36 60 88 35 47 43 46 43 41
188 191 193 191 196 193 191 192 194 194 195 199 201 199 188 198 213 219 245 314 329 323 319 318 314 314 339 359 8 14 13 17 28 28 24 359 331 13 33 43 41 28 24
189 186 188 197 198 199 198 196 195 197 198 200 201 193 195 212 213 203 249 312 322 320 321 313 304 300 301 325 350 6 18 16 27 44 46 353 346 331 352 2 12 14 6
174 172 190 197 202 204 203 200 197 197 199 203 205 206 210 208 210 222 276 316 321 325 328 316 305 299 283 287 313 346 2 11 16 36 37 9 289 327 317 301 323 350 5
184 190 197 202 204 203 201 198 197 197 200 207 207 209 210 217 222 249 288 306 315 322 322 317 311 305 296 288 290 301 324 331 340 356 349 329 305 270 272 304 315 334 325
176 199 204 201 199 196 194 193 193 195 199 201 204 210 215 217 228 254 273 289 312 311 311 314 310 302 298 293 286 277 282 291 291 295 295 285 287 285 288 300 312 315 312
188 186 178 184 189 189 191 191 190 187 192 197 203 209 213 219 234 251 272 295 306 306 308 315 313 305 295 288 285 276 273 282 285 283 284 280 274 275 275 283 297 300 315
197 197 192 186 187 190 189 187 184 185 190 196 199 202 207 216 229 248 275 294 302 311 314 315 315 309 301 295 289 280 275 275 276 272 271 278 279 276 266 263 292 310 295
201 193 179 189 188 188 187 186 185 186 186 187 189 194 203 212 229 252 263 282 301 310 315 315 312 308 309 307 299 294 290 285 283 282 280 281 283 280 276 268 256 256 297
192 178 180 180 186 188 185 186 187 184 182 184 188 192 198 203 204 207 231 282 313 331 338 342 341 339 335 330 324 312 303 290 287 282 279 285 290 291 287 278 268 247 249
192 184 177 175 179 180 180 178 179 178 178 180 181 184 184 180 176 168 150 106 59 34 22 18 12 8 3 352 351 343 333 317 305 296 292 290 287 286 290 287 282 271 254
186 177 177 173 174 176 175 175 174 176 177 178 180 175 169 162 153 142 131 113 90 67 51 38 27 21 19 19 13 4 355 334 326 318 310 305 302 297 296 291 288 284 281
177 171 166 173 172 175 174 174 176 177 178 177 172 166 162 156 149 139 129 119 104 86 70 60 45 39 31 29 19 7 359 348 342 334 328 321 315 309 305 299 295 294 293
176 169 162 165 176 180 179 178 179 180 176 174 171 167 161 156 147 139 132 125 115 101 81 68 60 51 42 36 23 14 7 2 359 350 343 334 327 320 314 309 306 303 297
181 179 178 182 185 185 187 186 182 179 178 175 172 169 164 160 155 150 146 136 126 113 98 83 72 63 47 37 23 19 16 13 15 12 6 358 344 332 322 317 314 310 304
199 191 189 185 186 189 188 185 182 181 181 179 178 174 171 167 163 157 152 145 140 129 122 103 73 62 50 37 17 15 16 13 14 18 21 18 11 4 356 349 335 322 306
202 194 192 190 188 190 191 188 186 182 183 183 180 177 175 173 171 167 163 165 161 153 135 108 74 62 39 20 10 8 9 11 13 11 11 13 9 6 2 1 358 351 341
207 207 197 192 193 195 194 190 186 186 185 184 183 181 180 178 175 173 175 175 170 160 142 105 73 63 38 18 8 4 5 6 1 357 355 348 344 342 339 331 328 324 320
212 204 197 194 190 194 193 188 186 187 187 187 187 186 185 181 180 183 183 181 176 165 157 136 61 39 27 11 4 359 0 357 353 344 338 334 333 333 333 326 324 319 317
221 197 195 193 190 191 189 185 185 188 191 192 190 189 187 187 189 189 188 187 185 184 180 187 269 331 354 350 349 342 341 339 340 342 341 338 332 328 332 328 322 317 318
235 209 193 184 190 189 186 182 185 192 196 191 189 189 190 192 193 192 192 192 193 201 213 225 257 284 305 315 317 323 325 330 330 332 332 332 330 327 325 327 320 311 313
205 196 183 183 186 185 182 183 192 198 191 189 188 189 191 192 194 195 195 200 208 219 236 251 262 268 285 299 303 306 305 310 308 317 320 321 323 318 316 319 321 313 308
218 201 186 176 182 186 187 183 195 189 187 187 189 189 190 192 196 198 201 209 223 235 252 264 279 287 290 294 292 289 291 295 298 304 309 310 310 312 312 314 313 312 310
204 197 181 175 179 186 190 196 190 188 187 188 189 189 190 192 198 206 215 225 231 241 249 257 271 287 292 291 296 288 288 296 301 306 307 307 307 303 304 306 307 306 300
200 191 183 180 182 188 193 194 189 186 187 189 188 190 195 200 208 220 229 238 245 248 254 262 271 279 289 298 298 291 292 298 301 305 299 300 300 303 306 308 308 308 304
202 191 189 186 191 192 193 189 187 185 184 183 186 192 199 206 219 229 237 243 250 254 260 265 272 279 281 289 287 284 285 287 291 295 291 292 294 293 296 297 298 298 298
Height
814 817 820 824 828 831 833 836 839 842 845 847 849 850 851 852 853 853 854 854 853 852 851 850 849 849 848 846 845 843 841 840 837 834 834 834 833 833 832 831 830 828 827
813 815 818 822 826 828 830 833 837 839 842 845 847 848 849 851 851 852 853 852 852 851 850 849 848 848 847 846 845 843 842 840 838 837 836 835 834 833 832 833 831 829 829
809 812 816 819 823 827 829 831 834 837 840 842 844 846 847 849 850 851 851 851 850 849 848 847 847 847 846 846 845 843 842 841 839 838 838 836 837 836 832 832 831 830 829
802 806 812 816 819 824 827 830 832 835 837 840 842 843 844 846 847 849 849 849 849 847 846 846 846 845 845 844 844 843 842 841 841 840 839 840 839 839 833 831 830 830 829
797 801 807 810 816 821 824 827 830 832 835 837 839 840 842 844 845 846 847 847 846 845 845 844 844 844 843 843 842 842 842 842 841 840 840 840 838 838 838 832 831 829 827
790 800 804 808 813 818 822 824 827 829 832 834 836 838 839 841 842 843 844 844 844 844 843 843 842 841 841 840 840 840 840 840 839 839 839 840 839 837 838 835 832 829 826
792 796 801 805 810 814 818 821 823 825 828 831 833 835 837 838 839 840 841 841 841 841 841 840 840 839 838 838 838 837 837 837 837 837 837 837 838 837 837 836 833 830 826
788 791 794 800 805 809 814 817 819 822 825 828 830 832 834 836 837 838 838 839 839 839 839 838 838 837 836 836 835 835 835 834 833 834 833 833 834 834 833 834 834 831 828
782 785 791 796 800 805 809 812 815 819 822 825 828 831 833 834 835 836 836 837 837 837 836 836 836 835 834 833 833 833 833 833 833 832 832 832 831 830 829 830 830 831 828
782 783 788 792 797 801 806 810 813 817 820 824 827 829 831 832 833 834 835 835 835 835 835 835 834 833 832 832 832 832 831 830 830 830 828 829 830 829 828 827 827 827 827
781 783 786 789 794 799 803 807 811 815 819 822 825 828 829 831 832 833 833 833 834 834 834 834 833 832 831 831 830 829 829 830 829 829 827 827 827 826 826 825 824 824 824
776 781 785 788 792 796 801 806 810 814 817 820 823 825 827 829 830 831 832 832 833 833 833 833 833 832 831 829 829 829 827 828 827 827 826 825 824 824 823 822 821 821 820
776 780 785 788 792 796 800 804 808 811 815 818 821 824 826 827 829 830 831 831 832 833 833 832 832 831 831 829 829 828 827 827 826 825 824 823 822 821 820 819 819 818 816
775 780 785 788 792 795 799 802 806 810 813 816 819 822 824 826 827 828 829 830 830 831 832 831 830 830 830 827 828 827 826 825 824 823 821 820 820 819 818 817 817 816 813
773 776 780 784 788 792 796 800 804 807 810 814 817 820 822 823 825 826 827 828 829 829 828 830 829 828 828 826 827 826 824 823 822 821 819 818 818 817 816 815 814 813 812
765 770 774 779 783 787 791 797 801 804 808 811 814 816 818 821 823 823 825 826 827 827 827 828 827 827 827 827 826 825 823 822 821 820 819 818 817 815 815 813 813 812 809
757 761 764 768 773 778 783 788 793 798 802 806 809 812 814 817 819 821 822 823 825 826 826 826 826 825 825 825 825 823 822 821 820 820 819 818 817 815 814 812 810 810 808
754 758 761 765 769 775 781 787 792 796 800 803 807 809 812 814 816 818 820 822 823 824 824 825 824 824 824 823 822 822 821 820 820 819 819 818 816 815 813 811 808 807 805
745 747 751 757 764 770 777 783 788 792 796 800 803 806 809 812 814 816 819 820 821 822 822 823 823 823 822 821 820 819 819 819 818 819 818 816 814 813 812 809 805 803 801
742 743 746 751 757 765 772 778 783 788 792 795 799 803 806 808 812 814 816 817 819 820 820 820 820 820 819 820 819 818 818 818 817 817 815 815 813 811 809 806 804 800 798
740 741 744 747 751 759 766 773 778 782 786 792 796 799 803 806 809 811 813 814 816 817 817 816 817 817 817 817 817 816 816 815 814 814 812 811 810 807 805 803 800 798 796
739 740 743 746 749 755 762 768 773 777 783 787 791 795 799 802 805 808 810 812 813 813 813 814 814 814 814 815 815 815 814 813 812 810 809 807 805 804 802 799 797 795 793
740 741 741 743 747 750 754 760 765 773 779 784 788 791 795 799 802 805 807 808 810 810 811 811 811 811 812 812 812 812 812 811 810 808 806 803 802 799 797 794 792 790 787
739 741 744 745 747 750 754 759 765 771 775 780 785 790 793 796 799 801 803 805 805 806 806 807 807 806 806 807 807 807 806 806 805 804 803 801 798 795 793 790 788 785 783
737 738 740 745 749 753 756 760 764 768 774 779 784 788 791 794 796 797 799 800 801 801 802 802 801 801 801 802 803 803 802 801 799 797 795 794 791 788 785 782 780 779 777
736 738 741 744 747 751 756 759 763 767 772 777 781 784 787 790 792 793 795 796 796 797 797 797 797 797 796 795 796 797 798 797 795 793 789 786 785 782 779 777 774 772 769